[[{"header":{"parameterUnit":"m.s-1","parameterCategory":2,"la1":30.2991,"la2":30.254,"lo1":-89.0895,"lo2":-89.0444,"dy":0.0017,"dx":0.0017,"nx":28,"ny":28,"refTime":"2023-07-29T03:00:00:Z","depth":"0","parameterNumber":2,"parameterNumberName":"U-component_of_CURRENTS"},"data":[0,0,0,0,0,0,0,0,0,0,0,0,0,0,0,0,0,0,0,0,0,0,0,0,0,0,0,0,0,0,0,0,0,0,0,0,0,0,0,0,0,0,0,0,0,0,0,0,0,0,0,0,0,0,0,0,0,0,0.1335,0.1335,0,0.1362,0.1362,0.1362,0.1347,0.1346,0.1345,0.1345,0.1382,0.1384,0.1385,0,0,0,0,0,0,0,0,0,0,0,0,0,0.131,0.131,0.1335,0.1335,0.1336,0.1362,0.1362,0.1362,0.1347,0.1346,0.1345,0.1344,0.1381,0.1383,0.1386,0,0,0,0,0,0,0,0,0,0,0,0,0,0.1328,0.131,0.1335,0.133,0.133,0.1361,0.1362,0.1363,0.1347,0.1346,0.1345,0.1344,0.1381,0.1383,0.1386,0.1427,0,0,0.1394,0.1395,0,0,0,0,0,0,0,0,0.1327,0.1329,0.1331,0.1331,0.1331,0.1349,0.1367,0.1384,0.1348,0.1342,0.1345,0.1343,0.1372,0.1375,0.1384,0.1429,0.1431,0.1394,0.1396,0.1397,0.1398,0,0,0,0,0,0,0,0.1325,0.1328,0.1347,0.1331,0.1331,0.134,0.1341,0.137,0.1365,0.1342,0.1341,0.1343,0.1372,0.1382,0.1385,0.1431,0.1394,0.1396,0.1398,0.1399,0.1547,0.1549,0,0,0,0,0,0,0.132,0.1326,0.1346,0.1347,0.1324,0.1341,0.1342,0.1345,0.1364,0.1365,0.1344,0.1342,0.1378,0.1382,0.1386,0.1459,0.1397,0.1399,0.1401,0.1544,0.1547,0.155,0,0,0,0,0,0,0.1319,0.1321,0.1345,0.1337,0.134,0.1343,0.1346,0.1346,0.1358,0.1365,0.1366,0.1355,0.1377,0.1383,0.1422,0.146,0.1401,0.1403,0.1542,0.1545,0.1548,0.1591,0,0,0,0,0,0,0.1318,0.1321,0.1329,0.1336,0.134,0.1372,0.1347,0.1348,0.136,0.1358,0.1375,0.1377,0.1377,0.1418,0.1425,0.1462,0.1405,0.1539,0.1543,0.1547,0.1587,0.1595,0.1603,0,0,0,0,0,0.1317,0.1335,0.133,0.1332,0.1349,0.1373,0.1377,0.1374,0.1362,0.1378,0.1388,0.1376,0.1451,0.1422,0.1429,0.1468,0.1536,0.1542,0.1547,0.1583,0.1594,0.1603,0,0,0,0,0,0,0.1329,0.1336,0.1329,0.1348,0.1361,0.137,0.1387,0.1383,0.1404,0.1403,0.1402,0.1407,0.1454,0.1463,0.1431,0.1527,0.1494,0.1501,0.1519,0.153,0.1538,0.1575,0.1407,0,0,0,0,0,0.1336,0.1351,0.1356,0.1373,0.138,0.1385,0.1396,0.1395,0.141,0.1417,0.1427,0.145,0.1484,0.1505,0.1529,0.1585,0.1701,0.1618,0.1626,0.1633,0.1671,0.1881,0.1913,0.1567,0.1567,0.1567,0,0,0.1345,0.1351,0.1359,0.1377,0.1387,0.1411,0.1389,0.1412,0.1435,0.1421,0.1461,0.1475,0.1504,0.1559,0.1583,0.157,0.1799,0.164,0.1645,0.168,0.189,0.1924,0.1955,0.157,0.157,0.1569,0,0,0.1379,0.1377,0.1404,0.1417,0.1435,0.1438,0.1446,0.146,0.147,0.1509,0.1509,0.1557,0.1591,0.1634,0.1656,0.1734,0.183,0.1733,0.1812,0.2014,0.2046,0.2074,0.2299,0.2347,0.1744,0.1744,0.1744,0,0.1389,0.1419,0.1418,0.1447,0.146,0.1452,0.1484,0.15,0.1525,0.156,0.1527,0.164,0.1638,0.175,0.1761,0.1755,0.1901,0.1763,0.2029,0.206,0.2089,0.2311,0.2364,0.1746,0.1746,0.1746,0.1746,0,0.1445,0.1466,0.1484,0.1513,0.153,0.1556,0.1569,0.1597,0.1599,0.1628,0.1726,0.1749,0.1837,0.1826,0.1808,0.2003,0.2054,0.201,0.2006,0.2127,0.2353,0.2407,0.175,0.1749,0.1748,0.1748,0,0,0.1477,0.1514,0.1522,0.1543,0.1564,0.1588,0.1631,0.1688,0.1763,0.1784,0.1916,0.1938,0.1983,0.2016,0.2024,0.2164,0.2465,0.2175,0.2185,0.2405,0.2973,0.2956,0.3014,0.2483,0.2492,0.2499,0.3062,0,0.1521,0.158,0.1588,0.1645,0.1672,0.1679,0.1733,0.1785,0.1841,0.1969,0.2023,0.2148,0.205,0.2131,0.2253,0.2417,0.2607,0.232,0.2819,0.2836,0.281,0.3075,0.2985,0.3474,0.3116,0.3125,0.3131,0,0.1581,0.1608,0.1667,0.1719,0.1736,0.1775,0.1878,0.1932,0.2085,0.2149,0.2283,0.2352,0.2558,0.2461,0.2852,0.2687,0.2853,0.2963,0.2987,0.2998,0.292,0.329,0.3587,0.3496,0.3216,0.3209,0.3203,0,0.1619,0.1668,0.1716,0.173,0.1788,0.1833,0.1879,0.1999,0.2105,0.2318,0.2459,0.2663,0.2843,0.3055,0.3236,0.311,0.3691,0.3552,0.371,0.3712,0.3747,0.3736,0.4019,0.3891,0.389,0.3888,0.3886,0,0.1669,0.1712,0.174,0.1773,0.1862,0.1884,0.2032,0.2107,0.2302,0.2483,0.2587,0.2801,0.3008,0.3308,0.3427,0.3778,0.3879,0.3827,0.3888,0.3758,0.3741,0.3743,0.3639,0.3909,0.3904,0.39,0.3897,0,0.1737,0.1736,0.1811,0.1869,0.1888,0.1972,0.2123,0.2264,0.2409,0.2675,0.2774,0.3047,0.3407,0.362,0.4026,0.407,0.4283,0.4449,0.4286,0.4313,0.4267,0.4166,0.4386,0.4261,0.4752,0.4756,0.4759,0,0.1793,0.1833,0.1899,0.1968,0.2007,0.2114,0.2217,0.2328,0.2489,0.2809,0.2975,0.3362,0.3602,0.419,0.4384,0.4719,0.449,0.4812,0.4506,0.4356,0.4292,0.402,0.3874,0.4614,0.4616,0.4617,0.4618,0,0.1945,0.1964,0.2039,0.214,0.2237,0.2317,0.2458,0.2566,0.2731,0.2924,0.3207,0.3414,0.3935,0.4223,0.464,0.479,0.4575,0.4841,0.4767,0.4308,0.3964,0.3838,0.4152,0.4628,0.4627,0.4627,0.4626,0.4626,0.2116,0.219,0.228,0.2358,0.2439,0.2492,0.2553,0.2694,0.2857,0.3083,0.3295,0.3564,0.3995,0.4527,0.4684,0.4858,0.468,0.4766,0.4708,0.4485,0.4189,0.452,0.4962,0.4963,0.4964,0.4964,0.4965,0,0.2335,0.2387,0.2499,0.2557,0.2606,0.2601,0.2704,0.274,0.2854,0.3085,0.3276,0.3699,0.4059,0.4388,0.4741,0.4739,0.4495,0.4662,0.4271,0.4166,0.4614,0.442,0.4663,0.4663,0.4664,0.4664,0.4664,0.4664,0.2493,0.2608,0.2597,0.267,0.2689,0.2704,0.2714,0.2753,0.2868,0.306,0.3264,0.3483,0.3922,0.4425,0.4598,0.4561,0.4251,0.4159,0.4065,0.4381,0.4382,0.4383,0.4179,0.4367,0.4367,0.3458,0.3451,0.3446]},{"header":{"parameterUnit":"m.s-1","parameterCategory":2,"la1":30.2991,"la2":30.254,"lo1":-89.0895,"lo2":-89.0444,"dy":0.0017,"dx":0.0017,"nx":28,"ny":28,"refTime":"2023-07-29T03:00:00:Z","depth":"0","parameterNumber":3,"parameterNumberName":"V-component_of_CURRENTS"},"data":[0,0,0,0,0,0,0,0,0,0,0,0,0,0,0,0,0,0,0,0,0,0,0,0,0,0,0,0,0,0,0,0,0,0,0,0,0,0,0,0,0,0,0,0,0,0,0,0,0,0,0,0,0,0,0,0,0,0,-0.1213,-0.1214,0,-0.1319,-0.132,-0.1321,-0.1389,-0.139,-0.139,-0.139,-0.1508,-0.1511,-0.1514,0,0,0,0,0,0,0,0,0,0,0,0,0,-0.1102,-0.1104,-0.1213,-0.1214,-0.1215,-0.1318,-0.132,-0.1321,-0.1389,-0.139,-0.139,-0.1391,-0.1507,-0.1511,-0.1514,0,0,0,0,0,0,0,0,0,0,0,0,0,-0.1174,-0.1104,-0.1212,-0.1261,-0.1266,-0.1318,-0.132,-0.1322,-0.1389,-0.139,-0.139,-0.1391,-0.1506,-0.151,-0.1515,-0.1531,0,0,-0.1528,-0.1529,0,0,0,0,0,0,0,0,-0.117,-0.1178,-0.1252,-0.1258,-0.1264,-0.1341,-0.1324,-0.1392,-0.1389,-0.1343,-0.139,-0.1391,-0.1452,-0.1461,-0.1481,-0.1536,-0.1541,-0.1528,-0.153,-0.1532,-0.1534,0,0,0,0,0,0,0,-0.1165,-0.1174,-0.1255,-0.1254,-0.126,-0.1289,-0.1299,-0.1338,-0.1395,-0.1347,-0.1352,-0.1363,-0.1456,-0.1477,-0.1484,-0.1543,-0.1528,-0.1532,-0.1534,-0.1536,-0.1597,-0.1596,0,0,0,0,0,0,-0.1148,-0.1169,-0.1252,-0.1259,-0.1216,-0.129,-0.1302,-0.1316,-0.1394,-0.1406,-0.1362,-0.1365,-0.1469,-0.1479,-0.1489,-0.1481,-0.1532,-0.1536,-0.1539,-0.1598,-0.1597,-0.1596,0,0,0,0,0,0,-0.1145,-0.1154,-0.1248,-0.1215,-0.1229,-0.1291,-0.1307,-0.1318,-0.134,-0.1405,-0.1418,-0.1373,-0.147,-0.1483,-0.1517,-0.1488,-0.1538,-0.1542,-0.1599,-0.1598,-0.1596,-0.1486,0,0,0,0,0,0,-0.1142,-0.1153,-0.1158,-0.1214,-0.123,-0.1271,-0.1306,-0.132,-0.1345,-0.1351,-0.1418,-0.143,-0.1471,-0.151,-0.1521,-0.1494,-0.1545,-0.16,-0.1598,-0.1597,-0.1491,-0.1481,-0.1473,0,0,0,0,0,-0.1137,-0.1139,-0.1157,-0.1167,-0.1235,-0.1271,-0.1281,-0.1328,-0.1345,-0.1351,-0.1394,-0.1428,-0.1507,-0.1513,-0.1526,-0.15,-0.1601,-0.1599,-0.1597,-0.1495,-0.1483,-0.1473,0,0,0,0,0,0,-0.1093,-0.1148,-0.1169,-0.1187,-0.1222,-0.1282,-0.1292,-0.1322,-0.1361,-0.1365,-0.1425,-0.1439,-0.1456,-0.1496,-0.1502,-0.1512,-0.1556,-0.1556,-0.1474,-0.1464,-0.1455,-0.1344,-0.1549,0,0,0,0,0,-0.1084,-0.1101,-0.1153,-0.1166,-0.1181,-0.1234,-0.1254,-0.1284,-0.1327,-0.1345,-0.1387,-0.1429,-0.1458,-0.1475,-0.1512,-0.1523,-0.1458,-0.1512,-0.1503,-0.1495,-0.1414,-0.1303,-0.1274,-0.1589,-0.1589,-0.1589,0,0,-0.1068,-0.1102,-0.111,-0.1158,-0.1189,-0.1194,-0.1248,-0.1272,-0.1265,-0.1351,-0.1353,-0.1403,-0.1455,-0.1464,-0.1474,-0.1493,-0.1376,-0.1492,-0.1485,-0.1406,-0.1297,-0.1266,-0.1238,-0.1588,-0.1588,-0.1588,0,0,-0.1037,-0.1075,-0.1073,-0.1097,-0.1138,-0.1166,-0.1168,-0.1219,-0.1231,-0.1252,-0.1298,-0.1302,-0.1383,-0.1376,-0.1394,-0.1351,-0.1334,-0.1399,-0.1258,-0.1154,-0.1125,-0.1098,-0.098,-0.0944,-0.139,-0.139,-0.139,0,-0.1011,-0.1019,-0.1076,-0.1076,-0.1071,-0.1145,-0.1119,-0.1149,-0.1201,-0.1156,-0.1238,-0.1235,-0.1315,-0.1243,-0.1254,-0.132,-0.1258,-0.1299,-0.1134,-0.1107,-0.1081,-0.0966,-0.0927,-0.1385,-0.1385,-0.1386,-0.1386,0,-0.098,-0.0979,-0.0976,-0.0993,-0.0997,-0.0992,-0.1027,-0.1016,-0.1044,-0.1044,-0.0987,-0.1071,-0.1032,-0.1101,-0.1182,-0.1045,-0.1058,-0.1136,-0.1146,-0.1041,-0.093,-0.0891,-0.1377,-0.1379,-0.138,-0.1382,0,0,-0.092,-0.0945,-0.094,-0.0895,-0.0942,-0.0916,-0.0896,-0.0844,-0.073,-0.0813,-0.0649,-0.0762,-0.0752,-0.0766,-0.0848,-0.0802,-0.0631,-0.0896,-0.0893,-0.0746,-0.0368,-0.0415,-0.0378,-0.0687,-0.068,-0.0674,-0.0362,0,-0.0863,-0.0817,-0.0853,-0.0768,-0.0726,-0.075,-0.0685,-0.0643,-0.0613,-0.048,-0.0522,-0.043,-0.0643,-0.0591,-0.0579,-0.0597,-0.0523,-0.0705,-0.0515,-0.0507,-0.0536,-0.0332,-0.0402,-0.0132,-0.0324,-0.0318,-0.0313,0,-0.0801,-0.077,-0.0684,-0.0574,-0.0549,-0.0497,-0.0319,-0.0273,-0.0138,-0.0096,-0.0015,-0.0036,0.0044,-0.0164,-0.0078,-0.0185,-0.0241,-0.0288,-0.0279,-0.0311,-0.0479,-0.027,-0.0055,-0.0367,-0.0254,-0.0259,-0.0263,0,-0.0672,-0.0624,-0.0527,-0.0509,-0.0425,-0.0326,-0.0254,-0.0121,0.0021,0.0201,0.0352,0.0398,0.0497,0.0431,0.0279,0.0141,0.0384,0.0187,0.0114,0.011,0.0104,0.0086,0.0078,0.0304,0.0303,0.0303,0.0302,0,-0.0566,-0.0466,-0.0439,-0.0372,-0.0158,-0.0157,0.0112,0.0199,0.0402,0.0641,0.0593,0.0796,0.0649,0.0715,0.0512,0.0481,0.0589,0.0248,0.0225,0.0131,0.0114,-0.0123,-0.0289,0.0314,0.0312,0.0309,0.0307,0,-0.0378,-0.0408,-0.0249,-0.0144,-0.0086,0.0096,0.0338,0.0555,0.0688,0.1012,0.1095,0.1206,0.1275,0.112,0.1078,0.0841,0.0625,0.0711,0.0617,0.0576,0.0137,-0.0019,0.0119,-0.0014,0.0725,0.0726,0.0727,0,-0.0251,-0.017,-0.0042,0.0086,0.0162,0.039,0.0577,0.0715,0.0937,0.125,0.1446,0.1606,0.1712,0.166,0.1313,0.1098,0.0762,0.0863,0.0558,0.0211,0.0021,-0.0089,-0.0222,0.06,0.06,0.06,0.06,0,0.0057,0.0075,0.0199,0.0396,0.0592,0.0812,0.1062,0.1248,0.1435,0.1652,0.1934,0.204,0.1988,0.1764,0.1463,0.1221,0.0633,0.0851,0.0542,0.0015,-0.0138,-0.0314,0.0287,0.0599,0.0599,0.0599,0.06,0.06,0.0344,0.0473,0.058,0.0778,0.0974,0.1199,0.136,0.1582,0.1853,0.2122,0.2235,0.2382,0.2071,0.1637,0.1311,0.0621,0.0631,0.031,0.0191,0.0144,-0.0105,0.0506,0.0722,0.0723,0.0724,0.0724,0.0725,0,0.0708,0.0773,0.0968,0.1149,0.1338,0.1372,0.1662,0.1773,0.1995,0.2274,0.244,0.24,0.1917,0.1401,0.0565,0.004,-0.0197,-0.0262,-0.0478,-0.0559,0.0041,-0.0104,-0.0117,-0.0117,-0.0117,-0.0116,-0.0116,-0.0116,0.0919,0.1108,0.1118,0.1412,0.1523,0.1721,0.1835,0.1982,0.2163,0.2414,0.2529,0.2634,0.2267,0.0787,-0.0319,-0.0601,-0.1026,-0.1059,-0.1227,-0.0942,-0.0902,-0.0865,-0.1044,-0.1254,-0.1256,-0.1838,-0.1844,-0.1849]}],[{"header":{"parameterUnit":"m.s-1","parameterCategory":2,"la1":30.2991,"la2":30.254,"lo1":-89.0895,"lo2":-89.0444,"dy":0.0017,"dx":0.0017,"nx":28,"ny":28,"refTime":"2023-07-29T03:00:00:Z","depth":"2","parameterNumber":2,"parameterNumberName":"U-component_of_CURRENTS"},"data":[0,0,0,0,0,0,0,0,0,0,0,0,0,0,0,0,0,0,0,0,0,0,0,0,0,0,0,0,0,0,0,0,0,0,0,0,0,0,0,0,0,0,0,0,0,0,0,0,0,0,0,0,0,0,0,0,0,0,0.0797,0.0797,0,0.0818,0.0818,0.0818,0.0785,0.0784,0.0783,0.0782,0.0772,0.0772,0.0773,0,0,0,0,0,0,0,0,0,0,0,0,0,0.0763,0.0763,0.0797,0.0797,0.0797,0.0818,0.0818,0.0818,0.0785,0.0784,0.0783,0.0781,0.0771,0.0772,0.0773,0,0,0,0,0,0,0,0,0,0,0,0,0,0.0779,0.0763,0.0797,0.0784,0.0783,0.0817,0.0818,0.0818,0.0785,0.0784,0.0782,0.0781,0.0771,0.0772,0.0773,0.0811,0,0,0.0776,0.0777,0,0,0,0,0,0,0,0,0.0778,0.078,0.0786,0.0785,0.0784,0.0798,0.0802,0.0814,0.0786,0.0783,0.0782,0.078,0.078,0.078,0.0786,0.081,0.081,0.0776,0.0777,0.0778,0.0778,0,0,0,0,0,0,0,0.0777,0.0779,0.0804,0.0786,0.0785,0.079,0.079,0.0805,0.0788,0.0783,0.0781,0.0786,0.0778,0.0785,0.0785,0.081,0.0776,0.0777,0.0778,0.0778,0.0909,0.0911,0,0,0,0,0,0,0.0777,0.0778,0.0803,0.0804,0.0778,0.0791,0.0791,0.0794,0.0789,0.0787,0.0787,0.0784,0.0784,0.0784,0.0785,0.0854,0.0778,0.0779,0.0779,0.0906,0.0909,0.0912,0,0,0,0,0,0,0.0776,0.0779,0.0802,0.0793,0.0796,0.0793,0.0797,0.0796,0.0797,0.0792,0.0789,0.079,0.0783,0.0783,0.0817,0.0852,0.0779,0.078,0.0902,0.0907,0.0911,0.0976,0,0,0,0,0,0,0.0775,0.0778,0.0779,0.0793,0.0797,0.0835,0.0799,0.0797,0.0803,0.08,0.0794,0.0792,0.0782,0.0815,0.0818,0.0852,0.0781,0.0899,0.0904,0.0909,0.0971,0.0982,0.0992,0,0,0,0,0,0.0773,0.0788,0.0779,0.0782,0.0798,0.0836,0.084,0.0831,0.0805,0.0823,0.0823,0.0792,0.0851,0.0819,0.0821,0.0856,0.0896,0.0903,0.0909,0.0966,0.098,0.0992,0,0,0,0,0,0,0.0769,0.0787,0.0777,0.0793,0.0816,0.0831,0.0845,0.0836,0.085,0.0842,0.0824,0.0825,0.0869,0.0863,0.0827,0.0914,0.087,0.0877,0.0913,0.0926,0.0937,0.0936,0.0782,0,0,0,0,0,0.0771,0.0789,0.0805,0.0821,0.0832,0.0837,0.0848,0.0847,0.0861,0.0864,0.0862,0.0872,0.0901,0.091,0.0931,0.0975,0.1008,0.1004,0.1015,0.1024,0.1028,0.1136,0.1157,0.0933,0.0933,0.0933,0,0,0.0773,0.0786,0.0794,0.0822,0.0834,0.0864,0.084,0.0868,0.0891,0.0863,0.0894,0.0908,0.0923,0.0975,0.0995,0.097,0.1108,0.1032,0.1039,0.1038,0.1145,0.1166,0.1186,0.0937,0.0937,0.0936,0,0,0.0801,0.08,0.0828,0.085,0.0878,0.0888,0.0897,0.0919,0.0927,0.0968,0.0959,0.0997,0.1028,0.1053,0.1067,0.1153,0.1163,0.1164,0.1213,0.1318,0.1337,0.1354,0.1432,0.1455,0.1167,0.1168,0.1168,0,0.08,0.0828,0.0844,0.0878,0.0893,0.0899,0.093,0.0953,0.0983,0.1004,0.0986,0.107,0.1067,0.1146,0.1172,0.1175,0.1234,0.1155,0.1332,0.1349,0.1366,0.1441,0.1466,0.1172,0.1171,0.1171,0.117,0,0.0852,0.0868,0.089,0.0928,0.0956,0.0984,0.1014,0.1045,0.105,0.1072,0.1149,0.1173,0.1228,0.1235,0.1222,0.1341,0.1346,0.1333,0.1293,0.1392,0.1465,0.149,0.1177,0.1176,0.1175,0.1174,0,0,0.0859,0.0912,0.0916,0.0929,0.0976,0.1001,0.1056,0.1108,0.1159,0.1193,0.1276,0.1313,0.1338,0.1359,0.137,0.1439,0.1591,0.1436,0.144,0.1503,0.1828,0.1685,0.1698,0.1623,0.1628,0.1632,0.1835,0,0.0885,0.0934,0.0966,0.1009,0.1027,0.106,0.1118,0.117,0.1223,0.1315,0.1355,0.1444,0.1387,0.1443,0.1505,0.1584,0.1659,0.1536,0.1731,0.1736,0.1589,0.1723,0.1616,0.1776,0.1859,0.1863,0.1866,0,0.0918,0.0941,0.0979,0.1033,0.105,0.109,0.1177,0.124,0.1365,0.1419,0.1514,0.1569,0.1685,0.1631,0.1806,0.1742,0.179,0.1828,0.1838,0.1694,0.1639,0.1692,0.1818,0.1907,0.1904,0.19,0.1898,0,0.0887,0.0948,0.0968,0.0983,0.1057,0.1094,0.1151,0.1265,0.1355,0.1516,0.1616,0.1739,0.1846,0.1931,0.1972,0.1938,0.2153,0.2124,0.2037,0.2027,0.1965,0.194,0.2256,0.2256,0.2255,0.2255,0.2254,0,0.0884,0.0899,0.0955,0.0961,0.1036,0.1086,0.1208,0.1286,0.1447,0.1584,0.1683,0.1813,0.1934,0.2048,0.2065,0.2117,0.2238,0.2073,0.2084,0.1982,0.1957,0.2079,0.2055,0.2262,0.2261,0.2259,0.2258,0,0.0845,0.0871,0.0913,0.0984,0.1021,0.1081,0.1254,0.1361,0.1493,0.1689,0.1759,0.1939,0.2084,0.2151,0.2304,0.2239,0.2297,0.2271,0.2114,0.2098,0.2088,0.2066,0.2259,0.2256,0.2253,0.2251,0.2249,0,0.0825,0.0833,0.093,0.0999,0.1039,0.1147,0.1252,0.1383,0.1503,0.1746,0.1842,0.2035,0.2127,0.2262,0.2242,0.2273,0.2285,0.2141,0.2028,0.2105,0.2097,0.2078,0.2061,0.2002,0.1999,0.1996,0.1993,0,0.0811,0.0849,0.0908,0.1023,0.1127,0.1234,0.1369,0.1444,0.1614,0.1743,0.1894,0.1978,0.2135,0.2117,0.2121,0.2099,0.2123,0.2073,0.2288,0.1962,0.1864,0.1854,0.1846,0.1967,0.1969,0.1971,0.1973,0.1974,0.0836,0.0875,0.0961,0.1056,0.1187,0.1255,0.13,0.1431,0.1532,0.1661,0.1806,0.1884,0.1954,0.19,0.1878,0.1872,0.1967,0.1891,0.1903,0.1917,0.1795,0.1692,0.174,0.1742,0.1743,0.1744,0.1745,0,0.0838,0.0886,0.0992,0.1083,0.1167,0.1238,0.1343,0.1352,0.1393,0.1563,0.1643,0.1554,0.1583,0.1678,0.1645,0.1614,0.1618,0.1557,0.1587,0.1614,0.1638,0.1502,0.1371,0.137,0.1368,0.1367,0,0,0.0858,0.0906,0.0911,0.0993,0.1076,0.1123,0.1135,0.1164,0.126,0.1266,0.133,0.1469,0.1611,0.145,0.145,0.1435,0.1508,0.1382,0.1688,0.1752,0.1774,0.184,0.1661,0,0,0,0,0]},{"header":{"parameterUnit":"m.s-1","parameterCategory":2,"la1":30.2991,"la2":30.254,"lo1":-89.0895,"lo2":-89.0444,"dy":0.0017,"dx":0.0017,"nx":28,"ny":28,"refTime":"2023-07-29T03:00:00:Z","depth":"2","parameterNumber":3,"parameterNumberName":"V-component_of_CURRENTS"},"data":[0,0,0,0,0,0,0,0,0,0,0,0,0,0,0,0,0,0,0,0,0,0,0,0,0,0,0,0,0,0,0,0,0,0,0,0,0,0,0,0,0,0,0,0,0,0,0,0,0,0,0,0,0,0,0,0,0,0,-0.0175,-0.0175,0,-0.0155,-0.0155,-0.0155,-0.0181,-0.0181,-0.0182,-0.0183,-0.016,-0.0158,-0.0157,0,0,0,0,0,0,0,0,0,0,0,0,0,-0.0242,-0.0241,-0.0175,-0.0175,-0.0175,-0.0155,-0.0155,-0.0155,-0.018,-0.0181,-0.0182,-0.0183,-0.016,-0.0159,-0.0157,0,0,0,0,0,0,0,0,0,0,0,0,0,-0.0217,-0.024,-0.0176,-0.0185,-0.0185,-0.0155,-0.0155,-0.0154,-0.018,-0.0181,-0.0183,-0.0184,-0.0161,-0.0159,-0.0157,-0.0118,0,0,-0.015,-0.0149,0,0,0,0,0,0,0,0,-0.0219,-0.0215,-0.0184,-0.0184,-0.0184,-0.0171,-0.017,-0.0142,-0.018,-0.0183,-0.0183,-0.0185,-0.0161,-0.0159,-0.0154,-0.0117,-0.0116,-0.015,-0.0149,-0.0148,-0.0147,0,0,0,0,0,0,0,-0.022,-0.0216,-0.0168,-0.0183,-0.0184,-0.0191,-0.0189,-0.0164,-0.0166,-0.0183,-0.0184,-0.018,-0.0162,-0.0156,-0.0154,-0.0115,-0.015,-0.0148,-0.0147,-0.0146,-0.0057,-0.0056,0,0,0,0,0,0,-0.0219,-0.0217,-0.0169,-0.0168,-0.0204,-0.0189,-0.0187,-0.0175,-0.0166,-0.0166,-0.0179,-0.0181,-0.0159,-0.0156,-0.0153,-0.0111,-0.0148,-0.0146,-0.0144,-0.0058,-0.0057,-0.0056,0,0,0,0,0,0,-0.022,-0.0214,-0.017,-0.0192,-0.0187,-0.0186,-0.0173,-0.0174,-0.0167,-0.0163,-0.0164,-0.0172,-0.016,-0.0156,-0.0131,-0.011,-0.0145,-0.0143,-0.0059,-0.0058,-0.0056,-0.0023,0,0,0,0,0,0,-0.0222,-0.0215,-0.0203,-0.0191,-0.0185,-0.0144,-0.0171,-0.0172,-0.0162,-0.0165,-0.0157,-0.0157,-0.0161,-0.0134,-0.0128,-0.0108,-0.0141,-0.0061,-0.0059,-0.0057,-0.0026,-0.0021,-0.0016,0,0,0,0,0,-0.0224,-0.0191,-0.0203,-0.0197,-0.017,-0.0143,-0.014,-0.0146,-0.0161,-0.0147,-0.0149,-0.0157,-0.0118,-0.0131,-0.0125,-0.0103,-0.0062,-0.0059,-0.0057,-0.0028,-0.0022,-0.0017,0,0,0,0,0,0,-0.0202,-0.019,-0.0203,-0.0166,-0.0157,-0.0147,-0.013,-0.0138,-0.0128,-0.0132,-0.0138,-0.0136,-0.0109,-0.0106,-0.012,-0.0072,-0.0092,-0.0088,-0.0072,-0.0066,-0.0061,-0.0077,-0.0139,0,0,0,0,0,-0.0195,-0.0176,-0.0168,-0.014,-0.0133,-0.0134,-0.0124,-0.0127,-0.0118,-0.0115,-0.0109,-0.0102,-0.0091,-0.008,-0.0068,-0.0032,-0.0083,-0.0016,-0.0011,-0.0007,-0.0016,-0.0079,-0.0083,-0.0048,-0.0048,-0.0048,0,0,-0.0178,-0.017,-0.0159,-0.0136,-0.0131,-0.011,-0.0131,-0.0107,-0.0094,-0.0111,-0.0084,-0.0082,-0.0079,-0.005,-0.0036,-0.0045,-0.0043,-0.0004,-0.0001,-0.0012,-0.0078,-0.0081,-0.0085,-0.0046,-0.0046,-0.0047,0,0,-0.0133,-0.0129,-0.0102,-0.0094,-0.0082,-0.0082,-0.0075,-0.006,-0.0059,-0.0031,-0.0048,-0.0042,-0.0005,-0.0012,-0.0009,0.0032,-0.0019,0.0048,0.0063,0.0002,-0.0003,-0.0007,-0.0084,-0.0096,0.0053,0.0053,0.0053,0,-0.0116,-0.0085,-0.0088,-0.0063,-0.0052,-0.0069,-0.0039,-0.0036,-0.0016,-0.0007,-0.0016,0.0006,0.0007,0.002,0.0029,0.004,-0.001,0.004,0.0004,-0.0001,-0.0006,-0.0084,-0.0097,0.0055,0.0055,0.0054,0.0054,0,-0.0056,-0.0038,-0.0017,-0.0001,0.0013,0.0038,0.0037,0.0055,0.0053,0.0051,0.0068,0.0057,0.0066,0.0071,0.0063,0.0043,0.0013,0.0012,-0.0017,-0.0009,-0.009,-0.0105,0.0058,0.0057,0.0056,0.0056,0,0,-0.0002,0.0019,0.0024,0.0041,0.0045,0.0073,0.0091,0.0111,0.013,0.0125,0.0141,0.0137,0.0118,0.0118,0.0103,0.005,-0.0032,0.0019,0.0015,-0.0071,-0.0188,-0.0215,-0.0234,-0.0044,-0.0046,-0.0047,-0.0234,0,0.0042,0.0097,0.0091,0.0141,0.0171,0.0158,0.0182,0.0194,0.0191,0.0205,0.0166,0.0178,0.0139,0.0147,0.0083,0.0007,-0.0067,0.0017,-0.0172,-0.0178,-0.0214,-0.025,-0.0197,-0.0359,-0.0249,-0.0251,-0.0253,0,0.0097,0.0128,0.0182,0.0218,0.0232,0.0256,0.0292,0.0311,0.0304,0.0302,0.0276,0.0247,0.0182,0.0148,-0.0028,0.0027,-0.0083,-0.0162,-0.017,-0.022,-0.0232,-0.0347,-0.039,-0.0278,-0.0276,-0.0274,-0.0272,0,0.0144,0.0191,0.0238,0.0249,0.0287,0.0316,0.0337,0.0347,0.0366,0.0357,0.0359,0.0278,0.0237,0.0091,-0.0074,-0.0054,-0.0289,-0.0278,-0.0419,-0.0423,-0.0427,-0.0428,-0.0427,-0.0427,-0.0426,-0.0426,-0.0425,0,0.0189,0.023,0.0269,0.0297,0.0365,0.0375,0.0431,0.0443,0.0447,0.0458,0.0409,0.0377,0.0218,0.0075,-0.008,-0.0307,-0.0305,-0.0441,-0.0477,-0.0413,-0.041,-0.0369,-0.036,-0.0433,-0.0431,-0.043,-0.0429,0,0.0226,0.0246,0.0311,0.0366,0.0386,0.044,0.0485,0.0514,0.052,0.0525,0.0523,0.0429,0.0245,0.0061,-0.0185,-0.0313,-0.0517,-0.06,-0.0522,-0.0546,-0.0611,-0.0598,-0.0775,-0.0778,-0.078,-0.0782,-0.0783,0,0.0244,0.0278,0.0359,0.0386,0.041,0.0478,0.0512,0.0548,0.0564,0.0542,0.0533,0.0392,0.0274,-0.0091,-0.0319,-0.0601,-0.0612,-0.0734,-0.0681,-0.0632,-0.065,-0.0632,-0.0616,-0.0685,-0.0685,-0.0686,-0.0686,0,0.0263,0.0291,0.0331,0.0389,0.0438,0.0511,0.0558,0.0584,0.0607,0.0616,0.0566,0.0479,0.0174,-0.0089,-0.0442,-0.0611,-0.0675,-0.0754,-0.0744,-0.0589,-0.0558,-0.057,-0.0556,-0.0691,-0.069,-0.069,-0.069,-0.069,0.0247,0.0276,0.0303,0.0369,0.0434,0.0502,0.0576,0.0612,0.065,0.0647,0.0555,0.0465,0.0184,-0.0249,-0.051,-0.0726,-0.0746,-0.0816,-0.081,-0.0805,-0.0745,-0.0718,-0.0872,-0.0872,-0.0873,-0.0873,-0.0874,0,0.0179,0.0213,0.0265,0.0343,0.0427,0.0488,0.0575,0.0637,0.0704,0.0671,0.0628,0.0355,0.0067,-0.0197,-0.0519,-0.0764,-0.0731,-0.082,-0.0723,-0.072,-0.0717,-0.0647,-0.0751,-0.0751,-0.0751,-0.075,0,0,0.0122,0.0138,0.0183,0.0295,0.0397,0.0543,0.0626,0.0696,0.0726,0.0664,0.0633,0.047,0.0154,-0.0065,-0.0389,-0.0545,-0.056,-0.0567,-0.0649,-0.0495,-0.0487,-0.0712,-0.0603,0,0,0,0,0]}],[{"header":{"parameterUnit":"m.s-1","parameterCategory":2,"la1":30.2991,"la2":30.254,"lo1":-89.0895,"lo2":-89.0444,"dy":0.0017,"dx":0.0017,"nx":28,"ny":28,"refTime":"2023-07-29T03:00:00:Z","depth":"4","parameterNumber":2,"parameterNumberName":"U-component_of_CURRENTS"},"data":[0,0,0,0,0,0,0,0,0,0,0,0,0,0,0,0,0,0,0,0,0,0,0,0,0,0,0,0,0,0,0,0,0,0,0,0,0,0,0,0,0,0,0,0,0,0,0,0,0,0,0,0,0,0,0,0,0,0,0.051,0.0511,0,0.0587,0.0588,0.0589,0.0671,0.0672,0.0673,0.0674,0.0743,0.0744,0.0745,0,0,0,0,0,0,0,0,0,0,0,0,0,0.0415,0.0416,0.051,0.0511,0.0512,0.0587,0.0588,0.0589,0.0671,0.0672,0.0674,0.0675,0.0743,0.0744,0.0745,0,0,0,0,0,0,0,0,0,0,0,0,0,0.0471,0.0417,0.051,0.0561,0.0566,0.0587,0.0588,0.059,0.0671,0.0672,0.0674,0.0676,0.0743,0.0744,0.0745,0.0719,0,0,0.0749,0.0749,0,0,0,0,0,0,0,0,0.0468,0.0475,0.0553,0.0557,0.0564,0.0621,0.058,0.0632,0.067,0.0632,0.0674,0.0676,0.07,0.0705,0.0716,0.0723,0.0725,0.0749,0.0749,0.075,0.075,0,0,0,0,0,0,0,0.0464,0.0472,0.0541,0.0553,0.056,0.0574,0.0584,0.059,0.0656,0.0635,0.0641,0.0648,0.0703,0.0715,0.0719,0.0726,0.0749,0.075,0.0751,0.0751,0.0792,0.0793,0,0,0,0,0,0,0.0453,0.0468,0.0539,0.0543,0.0518,0.0575,0.0586,0.0601,0.0656,0.0666,0.0647,0.0652,0.0712,0.0717,0.0721,0.0772,0.075,0.0751,0.0752,0.0792,0.0792,0.0793,0,0,0,0,0,0,0.045,0.0458,0.0535,0.0506,0.0517,0.0575,0.0591,0.0602,0.0642,0.0665,0.0675,0.0679,0.0714,0.072,0.0753,0.0773,0.0752,0.0753,0.0791,0.0792,0.0792,0.0824,0,0,0,0,0,0,0.0447,0.0457,0.0483,0.0506,0.0519,0.057,0.059,0.0602,0.0642,0.065,0.0695,0.0702,0.0715,0.0751,0.0754,0.0774,0.0754,0.0791,0.0792,0.0792,0.0822,0.0825,0.0828,0,0,0,0,0,0.0444,0.046,0.0484,0.0493,0.0546,0.057,0.0579,0.0624,0.0642,0.0665,0.0694,0.0702,0.0757,0.0752,0.0755,0.0777,0.0791,0.0791,0.0792,0.0821,0.0825,0.0828,0,0,0,0,0,0,0.0433,0.047,0.0497,0.0527,0.0559,0.0585,0.0612,0.0632,0.0672,0.0687,0.0706,0.0715,0.0752,0.0753,0.0747,0.0789,0.0775,0.0776,0.0795,0.0799,0.0802,0.0809,0.0755,0,0,0,0,0,0.0441,0.047,0.0501,0.0532,0.0546,0.0582,0.0603,0.063,0.0658,0.068,0.0711,0.0735,0.0751,0.0768,0.0785,0.0804,0.0804,0.0819,0.0822,0.0824,0.0831,0.0842,0.0847,0.0795,0.0795,0.0795,0,0,0.0445,0.0472,0.049,0.0533,0.0562,0.0586,0.0601,0.0636,0.0664,0.0677,0.0733,0.0749,0.0758,0.0789,0.0805,0.0798,0.0838,0.0825,0.0827,0.0833,0.0843,0.0848,0.0853,0.0796,0.0796,0.0796,0,0,0.0451,0.0492,0.0514,0.054,0.0585,0.0605,0.0617,0.0657,0.0691,0.0728,0.0746,0.0774,0.0805,0.082,0.0826,0.0848,0.0853,0.0856,0.088,0.089,0.0895,0.0899,0.0905,0.0909,0.0858,0.0858,0.0858,0,0.0456,0.0492,0.0524,0.0547,0.0575,0.0613,0.0637,0.0666,0.0717,0.0741,0.0753,0.0804,0.0817,0.0843,0.0859,0.0857,0.0864,0.0868,0.0895,0.0899,0.0902,0.0907,0.0912,0.086,0.0859,0.0859,0.0859,0,0.047,0.0509,0.0522,0.0571,0.0601,0.063,0.0667,0.0708,0.0745,0.0772,0.0821,0.084,0.0873,0.0876,0.0878,0.0911,0.0908,0.0897,0.0888,0.0909,0.0913,0.0917,0.0862,0.0861,0.0861,0.086,0,0,0.0448,0.0519,0.0527,0.0559,0.0619,0.064,0.0688,0.0737,0.0771,0.0819,0.0859,0.0891,0.0913,0.0921,0.0929,0.0938,0.0969,0.0937,0.0937,0.0946,0.0997,0.0989,0.0992,0.0969,0.097,0.0971,0.099,0,0.0455,0.0501,0.0538,0.059,0.0616,0.0669,0.0709,0.0759,0.0805,0.0853,0.0877,0.092,0.0925,0.095,0.0962,0.097,0.0981,0.0965,0.0972,0.0972,0.0965,0.0997,0.0973,0.0993,0.0994,0.0994,0.0995,0,0.0452,0.0489,0.0538,0.0608,0.0625,0.0666,0.0743,0.0786,0.0851,0.0886,0.0933,0.0956,0.0996,0.0987,0.102,0.1014,0.1015,0.1011,0.1011,0.0997,0.0972,0.0966,0.1002,0.1001,0.1001,0.1,0.1,0,0.0416,0.0487,0.0532,0.0557,0.0636,0.0679,0.0734,0.0805,0.0845,0.0922,0.0954,0.0997,0.1033,0.1041,0.106,0.1045,0.1083,0.1052,0.1041,0.104,0.1026,0.1022,0.1068,0.1068,0.1068,0.1068,0.1068,0,0.0402,0.0434,0.0528,0.0551,0.0608,0.0677,0.0745,0.08,0.0876,0.0921,0.0983,0.1016,0.1052,0.1081,0.1075,0.1087,0.1101,0.1057,0.105,0.1038,0.1035,0.1029,0.1024,0.1069,0.1069,0.1068,0.1068,0,0.0351,0.0411,0.0459,0.0557,0.0594,0.0641,0.0751,0.0789,0.088,0.094,0.0969,0.1044,0.1097,0.1123,0.114,0.1115,0.1114,0.1111,0.1112,0.1102,0.1053,0.105,0.1086,0.1086,0.1086,0.1086,0.1086,0,0.0331,0.0354,0.0454,0.0486,0.0539,0.0624,0.0672,0.0779,0.0823,0.0948,0.0963,0.1053,0.1097,0.1114,0.1146,0.1153,0.114,0.1128,0.1077,0.1069,0.1058,0.1055,0.1051,0.1086,0.1086,0.1086,0.1086,0,0.0285,0.0325,0.0364,0.0438,0.05,0.0559,0.0651,0.0681,0.0803,0.0875,0.0948,0.0998,0.1064,0.1095,0.1132,0.1122,0.1127,0.1128,0.1126,0.1078,0.1069,0.1058,0.1055,0.1087,0.1087,0.1087,0.1087,0,0.0248,0.0258,0.032,0.0384,0.0445,0.0499,0.0556,0.0635,0.07,0.0846,0.0864,0.097,0.1046,0.1081,0.1101,0.1119,0.1091,0.104,0.1042,0.1043,0.1025,0.1007,0.1011,0,0,0,0,0,0.0213,0.0223,0.0267,0.0337,0.0395,0.0446,0.0536,0.0596,0.0714,0.0744,0.0813,0.0876,0.0954,0.1002,0.1011,0.108,0.1087,0.1086,0.1025,0.1087,0.1087,0.1073,0,0,0,0,0,0,0.0187,0.0213,0.0243,0.0292,0.0335,0.0403,0.0462,0.0544,0.0577,0.0693,0.0735,0.0825,0.0902,0.0937,0.0992,0.1009,0.0956,0.1153,0.1151,0.1087,0.1087,0.1087,0.1073,0,0,0,0,0]},{"header":{"parameterUnit":"m.s-1","parameterCategory":2,"la1":30.2991,"la2":30.254,"lo1":-89.0895,"lo2":-89.0444,"dy":0.0017,"dx":0.0017,"nx":28,"ny":28,"refTime":"2023-07-29T03:00:00:Z","depth":"4","parameterNumber":3,"parameterNumberName":"V-component_of_CURRENTS"},"data":[0,0,0,0,0,0,0,0,0,0,0,0,0,0,0,0,0,0,0,0,0,0,0,0,0,0,0,0,0,0,0,0,0,0,0,0,0,0,0,0,0,0,0,0,0,0,0,0,0,0,0,0,0,0,0,0,0,0,0.0062,0.0062,0,-0.0003,-0.0004,-0.0005,-0.0032,-0.0032,-0.0031,-0.0031,-0.0104,-0.0106,-0.0108,0,0,0,0,0,0,0,0,0,0,0,0,0,0.0137,0.0136,0.0062,0.0062,0.0061,-0.0003,-0.0004,-0.0005,-0.0032,-0.0032,-0.0031,-0.0031,-0.0103,-0.0106,-0.0108,0,0,0,0,0,0,0,0,0,0,0,0,0,0.0091,0.0136,0.0063,0.0041,0.0038,-0.0003,-0.0004,-0.0005,-0.0032,-0.0032,-0.0031,-0.0031,-0.0102,-0.0106,-0.0109,-0.0136,0,0,-0.0119,-0.012,0,0,0,0,0,0,0,0,0.0094,0.0088,0.0045,0.0042,0.0039,-0.0008,-0.0004,-0.0049,-0.0032,-0.0007,-0.0031,-0.0031,-0.0072,-0.0078,-0.0092,-0.0139,-0.0142,-0.0119,-0.0121,-0.0122,-0.0123,0,0,0,0,0,0,0,0.0097,0.009,0.0035,0.0044,0.004,0.0025,0.0019,-0.0013,-0.0041,-0.0009,-0.0011,-0.0016,-0.0074,-0.0089,-0.0094,-0.0143,-0.0119,-0.0122,-0.0124,-0.0125,-0.0245,-0.0246,0,0,0,0,0,0,0.0108,0.0094,0.0038,0.0034,0.0069,0.0024,0.0017,0.0006,-0.0041,-0.0048,-0.0017,-0.0017,-0.0084,-0.009,-0.0097,-0.0146,-0.0122,-0.0125,-0.0127,-0.0244,-0.0245,-0.0247,0,0,0,0,0,0,0.011,0.0103,0.004,0.0063,0.0054,0.0022,0.001,0.0004,-0.0019,-0.0047,-0.0053,-0.0034,-0.0084,-0.0092,-0.0135,-0.0148,-0.0127,-0.013,-0.0242,-0.0244,-0.0246,-0.0234,0,0,0,0,0,0,0.0112,0.0104,0.0091,0.0064,0.0054,0.001,0.001,0.0003,-0.0022,-0.0024,-0.0064,-0.007,-0.0084,-0.0131,-0.0139,-0.0152,-0.0132,-0.0241,-0.0243,-0.0245,-0.0233,-0.0236,-0.0238,0,0,0,0,0,0.0115,0.0096,0.0091,0.0084,0.004,0.001,0.0002,-0.002,-0.0023,-0.0039,-0.0066,-0.0069,-0.0151,-0.0134,-0.0144,-0.0158,-0.024,-0.0243,-0.0245,-0.0232,-0.0235,-0.0238,0,0,0,0,0,0,0.0113,0.009,0.0085,0.0057,0.0035,0.0005,-0.0015,-0.0026,-0.0061,-0.0065,-0.0087,-0.0096,-0.014,-0.0156,-0.0136,-0.0202,-0.0196,-0.0201,-0.0183,-0.0186,-0.0188,-0.0181,-0.0135,0,0,0,0,0,0.011,0.0092,0.007,0.0045,0.0035,0.0009,-0.0009,-0.0021,-0.005,-0.0066,-0.0092,-0.0125,-0.0159,-0.0176,-0.021,-0.0246,-0.0273,-0.0263,-0.0265,-0.0266,-0.0269,-0.0325,-0.0332,-0.0256,-0.0256,-0.0256,0,0,0.01,0.0086,0.0074,0.0044,0.0023,0.0007,-0.0002,-0.0031,-0.0046,-0.0069,-0.0107,-0.0138,-0.0173,-0.0212,-0.0233,-0.0225,-0.0305,-0.027,-0.0271,-0.0272,-0.0329,-0.0336,-0.0342,-0.0258,-0.0258,-0.0257,0,0,0.0082,0.0062,0.0047,0.0032,0.0005,-0.0009,-0.0016,-0.0048,-0.0065,-0.0102,-0.0124,-0.0163,-0.0212,-0.0239,-0.0257,-0.0296,-0.0318,-0.0307,-0.0308,-0.0362,-0.0369,-0.0374,-0.0422,-0.0432,-0.0303,-0.0303,-0.0303,0,0.0069,0.0052,0.0035,0.0022,0.0007,-0.0012,-0.0028,-0.0049,-0.0091,-0.0113,-0.0113,-0.0201,-0.0224,-0.0276,-0.0283,-0.03,-0.0333,-0.0289,-0.0364,-0.037,-0.0376,-0.0424,-0.0435,-0.0303,-0.0303,-0.0303,-0.0303,0,0.0051,0.0034,0.0022,0.0004,-0.0015,-0.0036,-0.0055,-0.0081,-0.01,-0.0123,-0.0183,-0.0221,-0.0273,-0.0284,-0.029,-0.0349,-0.0359,-0.0362,-0.0351,-0.0383,-0.0432,-0.0444,-0.0303,-0.0303,-0.0303,-0.0303,0,0,0.002,0.0012,0.0005,-0.0002,-0.0025,-0.0045,-0.0068,-0.0104,-0.0131,-0.0168,-0.0213,-0.0262,-0.0288,-0.0311,-0.0334,-0.0369,-0.0435,-0.0378,-0.0381,-0.0414,-0.0557,-0.0477,-0.0482,-0.045,-0.0452,-0.0454,-0.0574,0,0.0006,-0.001,-0.0013,-0.0038,-0.0051,-0.0069,-0.009,-0.0124,-0.0156,-0.0204,-0.0246,-0.0301,-0.0296,-0.0329,-0.0363,-0.0422,-0.0466,-0.0402,-0.0531,-0.0535,-0.045,-0.0493,-0.046,-0.0583,-0.0586,-0.0588,-0.0589,0,-0.0014,-0.0022,-0.004,-0.0058,-0.0067,-0.0086,-0.0133,-0.0157,-0.0214,-0.0241,-0.0295,-0.0331,-0.0395,-0.0385,-0.0497,-0.0457,-0.0508,-0.0545,-0.0551,-0.0487,-0.0476,-0.0546,-0.0612,-0.061,-0.0608,-0.0607,-0.0605,0,-0.0031,-0.0045,-0.0059,-0.0066,-0.0088,-0.0111,-0.0133,-0.0181,-0.0199,-0.0281,-0.0301,-0.0387,-0.0426,-0.0507,-0.0554,-0.0547,-0.0666,-0.0673,-0.0654,-0.0649,-0.0689,-0.0682,-0.0763,-0.0763,-0.0763,-0.0763,-0.0762,0,-0.005,-0.0069,-0.0071,-0.0085,-0.0113,-0.0129,-0.017,-0.0204,-0.0244,-0.0257,-0.0327,-0.0344,-0.0456,-0.0517,-0.0581,-0.0637,-0.0694,-0.0664,-0.0677,-0.0683,-0.0673,-0.0698,-0.0689,-0.0767,-0.0766,-0.0765,-0.0764,0,-0.0086,-0.0077,-0.01,-0.0118,-0.0123,-0.0156,-0.0175,-0.0192,-0.0236,-0.0256,-0.0279,-0.0337,-0.041,-0.0502,-0.063,-0.0654,-0.0734,-0.0741,-0.0736,-0.0745,-0.0685,-0.0674,-0.0766,-0.0764,-0.0762,-0.0761,-0.076,0,-0.011,-0.0122,-0.0129,-0.0125,-0.0139,-0.0168,-0.017,-0.02,-0.0197,-0.0225,-0.0219,-0.0295,-0.0333,-0.0452,-0.0558,-0.0698,-0.0694,-0.0755,-0.0725,-0.0683,-0.0687,-0.0678,-0.067,-0.0757,-0.0757,-0.0757,-0.0756,0,-0.0161,-0.016,-0.0164,-0.0144,-0.0143,-0.0141,-0.0143,-0.0134,-0.0142,-0.0174,-0.0158,-0.022,-0.0289,-0.0401,-0.0502,-0.0595,-0.0731,-0.0739,-0.0743,-0.0716,-0.0674,-0.0678,-0.0671,-0.0751,-0.0752,-0.0752,-0.0752,0,-0.0198,-0.0195,-0.0167,-0.0154,-0.0136,-0.0101,-0.0116,-0.0084,-0.0083,-0.0093,-0.0081,-0.0165,-0.0228,-0.0345,-0.0434,-0.0521,-0.0547,-0.0577,-0.0591,-0.0598,-0.0493,-0.0412,-0.0428,0,0,0,0,0,-0.0222,-0.0182,-0.0166,-0.0125,-0.0105,-0.0094,-0.007,-0.0073,-0.007,-0.0039,-0.0055,-0.0106,-0.0218,-0.0279,-0.0351,-0.0426,-0.0582,-0.0515,-0.0629,-0.0721,-0.0728,-0.0623,0,0,0,0,0,0,-0.022,-0.0192,-0.0157,-0.0095,-0.007,-0.0038,-0.0027,-0.0031,-0.001,-0.0019,-0.0077,-0.0113,-0.0232,-0.0174,-0.0349,-0.0379,-0.0456,-0.0579,-0.058,-0.0718,-0.0724,-0.0728,-0.0623,0,0,0,0,0]}]]